Terminal Aerodrome Forecast
Issued by NWS Charleston, WV

Current Version | Previous Version | Text Only | Print | Product List | Glossary Off
Versions: 1 2 3 4 5 6 7 8 9 10 11 12 13 14 15 16 17 18 19 20 21 22 23

000
FTUS41 KRLX 150500
TAFHTS
TAF
KHTS 150536Z 1506/1606 22009KT P6SM BKN050
     FM150700 26007KT P6SM OVC030
     FM150800 28008G17KT 5SM -SHRA OVC025
     FM151100 30011G18KT 5SM -SHRA OVC010
     FM151300 30010G17KT P6SM OVC012
     FM151700 32010KT P6SM BKN022
     FM152100 32009KT P6SM SCT026
     FM160200 34005KT P6SM FEW250=

USA.gov is the U.S. government's official web portal to all federal, state and local government web resources and services.